Year,Month,Day,Hour,Minute,Value (Times are PST for windspeed in km/hr)
2010,01,20,00,00,8.40
2010,01,20,00,01,8.40
2010,01,20,00,02,8.70
2010,01,20,00,03,6.50
2010,01,20,00,04,6.20
2010,01,20,00,05,6.00
2010,01,20,00,06,2.30
2010,01,20,00,07,1.60
2010,01,20,00,08,0.00
2010,01,20,00,09,5.80
2010,01,20,00,10,5.00
2010,01,20,00,11,3.00
2010,01,20,00,12,0.60
2010,01,20,00,13,3.80
2010,01,20,00,14,3.10
2010,01,20,00,15,3.20
2010,01,20,00,16,1.50
2010,01,20,00,17,2.10
2010,01,20,00,18,5.00
2010,01,20,00,19,4.30
2010,01,20,00,20,3.10
2010,01,20,00,21,5.10
2010,01,20,00,22,5.80
2010,01,20,00,23,6.80
2010,01,20,00,24,3.70
2010,01,20,00,25,2.80
2010,01,20,00,26,5.60
2010,01,20,00,27,4.60
2010,01,20,00,28,5.80
2010,01,20,00,29,5.80
2010,01,20,00,30,4.60
2010,01,20,00,31,3.10
2010,01,20,00,32,5.90
2010,01,20,00,33,5.80
2010,01,20,00,34,6.70
2010,01,20,00,35,5.60
2010,01,20,00,36,3.60
2010,01,20,00,37,5.20
2010,01,20,00,38,3.00
2010,01,20,00,39,0.70
2010,01,20,00,40,2.10
2010,01,20,00,41,3.10
2010,01,20,00,42,6.10
2010,01,20,00,43,4.10
2010,01,20,00,44,3.90
2010,01,20,00,45,6.50
2010,01,20,00,46,3.00
2010,01,20,00,47,4.30
2010,01,20,00,48,7.40
2010,01,20,00,49,3.90
2010,01,20,00,50,5.10
2010,01,20,00,51,5.20
2010,01,20,00,52,5.10
2010,01,20,00,53,5.10
2010,01,20,00,54,3.10
2010,01,20,00,55,3.70
2010,01,20,00,56,5.80
2010,01,20,00,57,5.60
2010,01,20,00,58,3.40
2010,01,20,00,59,5.20
2010,01,20,01,00,4.70
2010,01,20,01,01,4.90
2010,01,20,01,02,8.90
2010,01,20,01,03,11.40
2010,01,20,01,04,5.70
2010,01,20,01,05,8.50
2010,01,20,01,06,9.50
2010,01,20,01,07,11.70
2010,01,20,01,08,10.50
2010,01,20,01,09,10.90
2010,01,20,01,10,11.90
2010,01,20,01,11,7.80
2010,01,20,01,12,4.60
2010,01,20,01,13,6.80
2010,01,20,01,14,9.40
2010,01,20,01,15,5.70
2010,01,20,01,16,7.90
2010,01,20,01,17,5.80
2010,01,20,01,18,5.90
2010,01,20,01,19,10.90
2010,01,20,01,20,7.00
2010,01,20,01,21,8.90
2010,01,20,01,22,7.30
2010,01,20,01,23,6.50
2010,01,20,01,24,5.90
2010,01,20,01,25,13.00
2010,01,20,01,26,8.50
2010,01,20,01,27,6.30
2010,01,20,01,28,11.20
2010,01,20,01,29,13.30
2010,01,20,01,30,10.90
2010,01,20,01,31,15.90
2010,01,20,01,32,12.90
2010,01,20,01,33,12.80
2010,01,20,01,34,12.50
2010,01,20,01,35,12.00
2010,01,20,01,36,11.80
2010,01,20,01,37,10.10
2010,01,20,01,38,10.00
2010,01,20,01,39,13.80
2010,01,20,01,40,7.90
2010,01,20,01,41,8.10
2010,01,20,01,42,10.60
2010,01,20,01,43,6.40
2010,01,20,01,44,10.60
2010,01,20,01,45,12.60
2010,01,20,01,46,11.50
2010,01,20,01,47,6.60
2010,01,20,01,48,6.40
2010,01,20,01,49,6.40
2010,01,20,01,50,6.40
2010,01,20,01,51,9.20
2010,01,20,01,52,7.30
2010,01,20,01,53,7.30
2010,01,20,01,54,6.20
2010,01,20,01,55,8.90
2010,01,20,01,56,9.60
2010,01,20,01,57,8.10
2010,01,20,01,58,5.10
2010,01,20,01,59,4.00
2010,01,20,02,00,2.30
2010,01,20,02,01,3.60
2010,01,20,02,02,6.10
2010,01,20,02,03,7.20
2010,01,20,02,04,7.00
2010,01,20,02,05,4.30
2010,01,20,02,06,5.20
2010,01,20,02,07,3.50
2010,01,20,02,08,4.30
2010,01,20,02,09,8.40
2010,01,20,02,10,5.20
2010,01,20,02,11,6.40
2010,01,20,02,12,4.70
2010,01,20,02,13,5.00
2010,01,20,02,14,3.20
2010,01,20,02,15,4.40
2010,01,20,02,16,3.10
2010,01,20,02,17,2.10
2010,01,20,02,18,0.60
2010,01,20,02,19,2.10
2010,01,20,02,20,3.90
2010,01,20,02,21,0.90
2010,01,20,02,22,1.50
2010,01,20,02,23,5.60
2010,01,20,02,24,8.00
2010,01,20,02,25,1.80
2010,01,20,02,26,1.00
2010,01,20,02,27,3.20
2010,01,20,02,28,3.90
2010,01,20,02,29,3.20
2010,01,20,02,30,1.60
2010,01,20,02,31,2.50
2010,01,20,02,32,1.50
2010,01,20,02,33,4.40
2010,01,20,02,34,2.40
2010,01,20,02,35,1.60
2010,01,20,02,36,0.90
2010,01,20,02,37,1.50
2010,01,20,02,38,0.10
2010,01,20,02,39,0.10
2010,01,20,02,40,1.40
2010,01,20,02,41,1.80
2010,01,20,02,42,2.10
2010,01,20,02,43,4.00
2010,01,20,02,44,4.20
2010,01,20,02,45,2.10
2010,01,20,02,46,1.40
2010,01,20,02,47,0.50
2010,01,20,02,48,0.20
2010,01,20,02,49,0.20
2010,01,20,02,50,0.40
2010,01,20,02,51,0.00
2010,01,20,02,52,0.70
2010,01,20,02,53,3.90
2010,01,20,02,54,3.30
2010,01,20,02,55,3.30
2010,01,20,02,56,4.00
2010,01,20,02,57,5.10
2010,01,20,02,58,5.10
2010,01,20,02,59,7.30
2010,01,20,03,00,7.30
2010,01,20,03,01,6.00
2010,01,20,03,02,5.10
2010,01,20,03,03,4.20
2010,01,20,03,04,4.00
2010,01,20,03,05,5.40
2010,01,20,03,06,3.50
2010,01,20,03,07,2.00
2010,01,20,03,08,4.10
2010,01,20,03,09,2.40
2010,01,20,03,10,0.50
2010,01,20,03,11,1.30
2010,01,20,03,12,0.00
2010,01,20,03,13,0.20
2010,01,20,03,14,0.10
2010,01,20,03,15,0.60
2010,01,20,03,16,2.20
2010,01,20,03,17,0.60
2010,01,20,03,18,2.90
2010,01,20,03,19,3.20
2010,01,20,03,20,2.90
2010,01,20,03,21,1.40
2010,01,20,03,22,1.70
2010,01,20,03,23,2.40
2010,01,20,03,24,3.30
2010,01,20,03,25,0.80
2010,01,20,03,26,0.10
2010,01,20,03,27,1.50
2010,01,20,03,28,0.20
2010,01,20,03,29,0.90
2010,01,20,03,30,4.00
2010,01,20,03,31,4.80
2010,01,20,03,32,4.60
2010,01,20,03,33,5.00
2010,01,20,03,34,5.90
2010,01,20,03,35,3.20
2010,01,20,03,36,4.70
2010,01,20,03,37,4.60
2010,01,20,03,38,2.00
2010,01,20,03,39,4.30
2010,01,20,03,40,4.30
2010,01,20,03,41,5.90
2010,01,20,03,42,4.40
2010,01,20,03,43,6.30
2010,01,20,03,44,4.10
2010,01,20,03,45,5.50
2010,01,20,03,46,6.70
2010,01,20,03,47,5.80
2010,01,20,03,48,4.60
2010,01,20,03,49,6.40
2010,01,20,03,50,3.90
2010,01,20,03,51,5.80
2010,01,20,03,52,3.80
2010,01,20,03,53,6.10
2010,01,20,03,54,5.30
2010,01,20,03,55,4.50
2010,01,20,03,56,3.30
2010,01,20,03,57,5.70
2010,01,20,03,58,8.10
2010,01,20,03,59,5.10
2010,01,20,04,00,3.10
2010,01,20,04,01,7.90
2010,01,20,04,02,6.10
2010,01,20,04,03,9.00
2010,01,20,04,04,7.30
2010,01,20,04,05,9.30
2010,01,20,04,06,7.70
2010,01,20,04,07,6.40
2010,01,20,04,08,6.80
2010,01,20,04,09,6.20
2010,01,20,04,10,9.10
2010,01,20,04,11,7.20
2010,01,20,04,12,10.10
2010,01,20,04,13,8.10
2010,01,20,04,14,7.70
2010,01,20,04,15,9.10
2010,01,20,04,16,6.00
2010,01,20,04,17,5.30
2010,01,20,04,18,3.50
2010,01,20,04,19,5.30
2010,01,20,04,20,3.70
2010,01,20,04,21,2.20
2010,01,20,04,22,0.20
2010,01,20,04,23,4.50
2010,01,20,04,24,4.40
2010,01,20,04,25,2.30
2010,01,20,04,26,5.50
2010,01,20,04,27,4.20
2010,01,20,04,28,6.10
2010,01,20,04,29,7.50
2010,01,20,04,30,7.70
2010,01,20,04,31,6.50
2010,01,20,04,32,3.80
2010,01,20,04,33,5.80
2010,01,20,04,34,6.80
2010,01,20,04,35,5.50
2010,01,20,04,36,5.80
2010,01,20,04,37,8.80
2010,01,20,04,38,11.50
2010,01,20,04,39,8.00
2010,01,20,04,40,6.90
2010,01,20,04,41,8.60
2010,01,20,04,42,6.10
2010,01,20,04,43,5.70
2010,01,20,04,44,6.00
2010,01,20,04,45,4.10
2010,01,20,04,46,3.10
2010,01,20,04,47,3.10
2010,01,20,04,48,6.30
2010,01,20,04,49,6.90
2010,01,20,04,50,5.00
2010,01,20,04,51,6.80
2010,01,20,04,52,5.30
2010,01,20,04,53,5.10
2010,01,20,04,54,4.70
2010,01,20,04,55,4.60
2010,01,20,04,56,6.80
2010,01,20,04,57,6.10
2010,01,20,04,58,3.80
2010,01,20,04,59,7.10
2010,01,20,05,00,3.60
2010,01,20,05,01,7.40
2010,01,20,05,02,6.00
2010,01,20,05,03,2.20
2010,01,20,05,04,5.80
2010,01,20,05,05,5.70
2010,01,20,05,06,8.20
2010,01,20,05,07,6.70
2010,01,20,05,08,5.70
2010,01,20,05,09,6.00
2010,01,20,05,10,8.20
2010,01,20,05,11,11.30
2010,01,20,05,12,10.10
2010,01,20,05,13,7.20
2010,01,20,05,14,5.90
2010,01,20,05,15,7.40
2010,01,20,05,16,5.70
2010,01,20,05,17,8.10
2010,01,20,05,18,9.30
2010,01,20,05,19,8.90
2010,01,20,05,20,8.50
2010,01,20,05,21,6.30
2010,01,20,05,22,8.60
2010,01,20,05,23,10.40
2010,01,20,05,24,6.70
2010,01,20,05,25,9.40
2010,01,20,05,26,10.50
2010,01,20,05,27,7.70
2010,01,20,05,28,8.10
2010,01,20,05,29,10.00
2010,01,20,05,30,12.60
2010,01,20,05,31,14.20
2010,01,20,05,32,7.20
2010,01,20,05,33,8.80
2010,01,20,05,34,8.40
2010,01,20,05,35,13.30
2010,01,20,05,36,9.20
2010,01,20,05,37,11.30
2010,01,20,05,38,9.10
2010,01,20,05,39,7.50
2010,01,20,05,40,7.80
2010,01,20,05,41,8.10
2010,01,20,05,42,8.70
2010,01,20,05,43,7.90
2010,01,20,05,44,8.40
2010,01,20,05,45,8.40
2010,01,20,05,46,7.20
2010,01,20,05,47,7.20
2010,01,20,05,48,9.40
2010,01,20,05,49,10.10
2010,01,20,05,50,8.10
2010,01,20,05,51,5.80
2010,01,20,05,52,4.00
2010,01,20,05,53,8.20
2010,01,20,05,54,9.50
2010,01,20,05,55,10.20
2010,01,20,05,56,12.20
2010,01,20,05,57,9.30
2010,01,20,05,58,7.50
2010,01,20,05,59,11.90
2010,01,20,06,00,7.70
2010,01,20,06,01,6.40
2010,01,20,06,02,9.80
2010,01,20,06,03,7.70
2010,01,20,06,04,8.50
2010,01,20,06,05,6.90
2010,01,20,06,06,10.10
2010,01,20,06,07,8.20
2010,01,20,06,08,8.40
2010,01,20,06,09,12.00
2010,01,20,06,10,9.00
2010,01,20,06,11,8.80
2010,01,20,06,12,8.50
2010,01,20,06,13,6.00
2010,01,20,06,14,7.80
2010,01,20,06,15,7.10
2010,01,20,06,16,6.10
2010,01,20,06,17,8.40
2010,01,20,06,18,10.40
2010,01,20,06,19,5.10
2010,01,20,06,20,7.30
2010,01,20,06,21,6.20
2010,01,20,06,22,9.00
2010,01,20,06,23,6.80
2010,01,20,06,24,8.50
2010,01,20,06,25,8.90
2010,01,20,06,26,8.10
2010,01,20,06,27,6.90
2010,01,20,06,28,7.30
2010,01,20,06,29,6.10
2010,01,20,06,30,5.50
2010,01,20,06,31,7.00
2010,01,20,06,32,5.40
2010,01,20,06,33,5.20
2010,01,20,06,34,8.10
2010,01,20,06,35,7.30
2010,01,20,06,36,4.90
2010,01,20,06,37,6.10
2010,01,20,06,38,4.80
2010,01,20,06,39,11.00
2010,01,20,06,40,8.10
2010,01,20,06,41,7.20
2010,01,20,06,42,7.40
2010,01,20,06,43,7.60
2010,01,20,06,44,7.90
2010,01,20,06,45,5.50
2010,01,20,06,46,5.40
2010,01,20,06,47,5.90
2010,01,20,06,48,6.10
2010,01,20,06,49,3.10
2010,01,20,06,50,3.40
2010,01,20,06,51,5.60
2010,01,20,06,52,5.80
2010,01,20,06,53,8.60
2010,01,20,06,54,6.10
2010,01,20,06,55,5.90
2010,01,20,06,56,8.20
2010,01,20,06,57,6.30
2010,01,20,06,58,5.40
2010,01,20,06,59,7.30
2010,01,20,07,00,9.30
2010,01,20,07,01,10.90
2010,01,20,07,02,10.50
2010,01,20,07,03,8.60
2010,01,20,07,04,9.70
2010,01,20,07,05,7.30
2010,01,20,07,06,4.80
2010,01,20,07,07,5.90
2010,01,20,07,08,9.00
2010,01,20,07,09,8.10
2010,01,20,07,10,7.10
2010,01,20,07,11,8.20
2010,01,20,07,12,8.60
2010,01,20,07,13,7.70
2010,01,20,07,14,4.70
2010,01,20,07,15,11.60
2010,01,20,07,16,7.80
2010,01,20,07,17,7.20
2010,01,20,07,18,6.90
2010,01,20,07,19,6.10
2010,01,20,07,20,8.90
2010,01,20,07,21,8.80
2010,01,20,07,22,8.50
2010,01,20,07,23,10.50
2010,01,20,07,24,9.60
2010,01,20,07,25,10.80
2010,01,20,07,26,11.80
2010,01,20,07,27,10.90
2010,01,20,07,28,7.00
2010,01,20,07,29,5.70
2010,01,20,07,30,7.50
2010,01,20,07,31,6.40
2010,01,20,07,32,7.60
2010,01,20,07,33,4.50
2010,01,20,07,34,6.60
2010,01,20,07,35,6.90
2010,01,20,07,36,5.90
2010,01,20,07,37,3.10
2010,01,20,07,38,6.90
2010,01,20,07,39,7.40
2010,01,20,07,40,6.60
2010,01,20,07,41,3.80
2010,01,20,07,42,5.00
2010,01,20,07,43,8.20
2010,01,20,07,44,7.50
2010,01,20,07,45,7.80
2010,01,20,07,46,7.80
2010,01,20,07,47,8.50
2010,01,20,07,48,5.70
2010,01,20,07,49,8.50
2010,01,20,07,50,5.60
2010,01,20,07,51,6.00
2010,01,20,07,52,6.30
2010,01,20,07,53,8.50
2010,01,20,07,54,5.90
2010,01,20,07,55,0.80
2010,01,20,07,56,1.10
2010,01,20,07,57,3.00
2010,01,20,07,58,1.30
2010,01,20,07,59,4.90
2010,01,20,08,00,7.70
2010,01,20,08,01,7.10
2010,01,20,08,02,5.60
2010,01,20,08,03,6.40
2010,01,20,08,04,4.80
2010,01,20,08,05,3.30
2010,01,20,08,06,2.30
2010,01,20,08,07,4.00
2010,01,20,08,08,3.10
2010,01,20,08,09,4.00
2010,01,20,08,10,5.70
2010,01,20,08,11,4.10
2010,01,20,08,12,2.70
2010,01,20,08,13,5.00
2010,01,20,08,14,4.70
2010,01,20,08,15,1.90
2010,01,20,08,16,1.40
2010,01,20,08,17,4.90
2010,01,20,08,18,4.00
2010,01,20,08,19,5.40
2010,01,20,08,20,6.20
2010,01,20,08,21,5.50
2010,01,20,08,22,5.50
2010,01,20,08,23,7.60
2010,01,20,08,24,5.30
2010,01,20,08,25,4.50
2010,01,20,08,26,3.20
2010,01,20,08,27,6.50
2010,01,20,08,28,7.50
2010,01,20,08,29,3.90
2010,01,20,08,30,5.00
2010,01,20,08,31,2.60
2010,01,20,08,32,2.00
2010,01,20,08,33,5.20
2010,01,20,08,34,4.10
2010,01,20,08,35,6.70
2010,01,20,08,36,5.00
2010,01,20,08,37,5.60
2010,01,20,08,38,7.70
2010,01,20,08,39,5.50
2010,01,20,08,40,3.00
2010,01,20,08,41,7.20
2010,01,20,08,42,3.40
2010,01,20,08,43,7.20
2010,01,20,08,44,5.90
2010,01,20,08,45,3.90
2010,01,20,08,46,5.80
2010,01,20,08,47,7.60
2010,01,20,08,48,3.80
2010,01,20,08,49,2.00
2010,01,20,08,50,5.50
2010,01,20,08,51,9.20
2010,01,20,08,52,6.00
2010,01,20,08,53,2.60
2010,01,20,08,54,0.70
2010,01,20,08,55,3.50
2010,01,20,08,56,1.60
2010,01,20,08,57,2.30
2010,01,20,08,58,6.10
2010,01,20,08,59,8.20
2010,01,20,09,00,3.70
2010,01,20,09,01,4.60
2010,01,20,09,02,7.30
2010,01,20,09,03,7.90
2010,01,20,09,04,11.30
2010,01,20,09,05,7.00
2010,01,20,09,06,3.50
2010,01,20,09,07,4.50
2010,01,20,09,08,8.60
2010,01,20,09,09,4.60
2010,01,20,09,10,3.50
2010,01,20,09,11,5.70
2010,01,20,09,12,6.90
2010,01,20,09,13,7.50
2010,01,20,09,14,6.80
2010,01,20,09,15,8.30
2010,01,20,09,16,5.40
2010,01,20,09,17,5.60
2010,01,20,09,18,8.80
2010,01,20,09,19,6.00
2010,01,20,09,20,7.60
2010,01,20,09,21,5.70
2010,01,20,09,22,5.90
2010,01,20,09,23,5.70
2010,01,20,09,24,6.40
2010,01,20,09,25,4.10
2010,01,20,09,26,6.90
2010,01,20,09,27,5.50
2010,01,20,09,28,3.00
2010,01,20,09,29,4.20
2010,01,20,09,30,6.50
2010,01,20,09,31,4.70
2010,01,20,09,32,3.10
2010,01,20,09,33,2.30
2010,01,20,09,34,2.50
2010,01,20,09,35,3.90
2010,01,20,09,36,2.30
2010,01,20,09,37,1.90
2010,01,20,09,38,5.50
2010,01,20,09,39,4.70
2010,01,20,09,40,5.00
2010,01,20,09,41,2.70
2010,01,20,09,42,5.90
2010,01,20,09,43,3.50
2010,01,20,09,44,3.50
2010,01,20,09,45,3.30
2010,01,20,09,46,5.60
2010,01,20,09,47,7.30
2010,01,20,09,48,4.00
2010,01,20,09,49,7.00
2010,01,20,09,50,7.50
2010,01,20,09,51,5.60
2010,01,20,09,52,1.40
2010,01,20,09,53,8.80
2010,01,20,09,54,6.20
2010,01,20,09,55,4.30
2010,01,20,09,56,2.20
2010,01,20,09,57,3.60
2010,01,20,09,58,2.50
2010,01,20,09,59,1.30
2010,01,20,10,00,3.40
2010,01,20,10,01,3.70
2010,01,20,10,02,1.40
2010,01,20,10,03,4.70
2010,01,20,10,04,7.50
2010,01,20,10,05,5.90
2010,01,20,10,06,1.30
2010,01,20,10,07,4.70
2010,01,20,10,08,4.40
2010,01,20,10,09,6.40
2010,01,20,10,10,3.90
2010,01,20,10,11,5.30
2010,01,20,10,12,4.40
2010,01,20,10,13,4.70
2010,01,20,10,14,7.40
2010,01,20,10,15,5.70
2010,01,20,10,16,4.10
2010,01,20,10,17,6.90
2010,01,20,10,18,12.80
2010,01,20,10,19,6.80
2010,01,20,10,20,4.90
2010,01,20,10,21,6.00
2010,01,20,10,22,7.60
2010,01,20,10,23,10.70
2010,01,20,10,24,10.60
2010,01,20,10,25,13.00
2010,01,20,10,26,7.10
2010,01,20,10,27,6.40
2010,01,20,10,28,3.80
2010,01,20,10,29,9.30
2010,01,20,10,30,5.50
2010,01,20,10,31,3.80
2010,01,20,10,32,3.50
2010,01,20,10,33,9.40
2010,01,20,10,34,9.70
2010,01,20,10,35,6.30
2010,01,20,10,36,6.40
2010,01,20,10,37,5.80
2010,01,20,10,38,5.30
2010,01,20,10,39,9.10
2010,01,20,10,40,2.50
2010,01,20,10,41,5.60
2010,01,20,10,42,6.00
2010,01,20,10,43,6.70
2010,01,20,10,44,4.90
2010,01,20,10,45,6.00
2010,01,20,10,46,10.10
2010,01,20,10,47,11.20
2010,01,20,10,48,6.80
2010,01,20,10,49,7.40
2010,01,20,10,50,6.00
2010,01,20,10,51,4.80
2010,01,20,10,52,5.60
2010,01,20,10,53,3.70
2010,01,20,10,54,5.30
2010,01,20,10,55,2.90
2010,01,20,10,56,2.00
2010,01,20,10,57,4.20
2010,01,20,10,58,4.30
2010,01,20,10,59,7.20
2010,01,20,11,00,4.20
2010,01,20,11,01,3.50
2010,01,20,11,02,5.60
2010,01,20,11,03,12.00
2010,01,20,11,04,5.70
2010,01,20,11,05,5.30
2010,01,20,11,06,1.80
2010,01,20,11,07,6.60
2010,01,20,11,08,4.10
2010,01,20,11,09,5.80
2010,01,20,11,10,11.40
2010,01,20,11,11,7.60
2010,01,20,11,12,4.60
2010,01,20,11,13,3.50
2010,01,20,11,14,3.10
2010,01,20,11,15,5.10
2010,01,20,11,16,5.00
2010,01,20,11,17,4.00
2010,01,20,11,18,4.20
2010,01,20,11,19,11.50
2010,01,20,11,20,8.70
2010,01,20,11,21,6.60
2010,01,20,11,22,4.80
2010,01,20,11,23,4.40
2010,01,20,11,24,6.90
2010,01,20,11,25,3.60
2010,01,20,11,26,7.90
2010,01,20,11,27,8.30
2010,01,20,11,28,4.10
2010,01,20,11,29,6.00
2010,01,20,11,30,3.00
2010,01,20,11,31,4.70
2010,01,20,11,32,5.00
2010,01,20,11,33,1.80
2010,01,20,11,34,2.60
2010,01,20,11,35,4.70
2010,01,20,11,36,3.10
2010,01,20,11,37,3.20
2010,01,20,11,38,7.80
2010,01,20,11,39,3.80
2010,01,20,11,40,3.90
2010,01,20,11,41,3.40
2010,01,20,11,42,5.30
2010,01,20,11,43,3.50
2010,01,20,11,44,5.30
2010,01,20,11,45,5.70
2010,01,20,11,46,6.30
2010,01,20,11,47,7.30
2010,01,20,11,48,7.10
2010,01,20,11,49,4.40
2010,01,20,11,50,4.30
2010,01,20,11,51,1.90
2010,01,20,11,52,3.90
2010,01,20,11,53,1.80
2010,01,20,11,54,4.40
2010,01,20,11,55,4.70
2010,01,20,11,56,4.50
2010,01,20,11,57,4.60
2010,01,20,11,58,4.60
2010,01,20,11,59,3.00
2010,01,20,12,00,2.80
2010,01,20,12,01,4.60
2010,01,20,12,02,2.00
2010,01,20,12,03,3.40
2010,01,20,12,04,8.10
2010,01,20,12,05,5.80
2010,01,20,12,06,9.10
2010,01,20,12,07,4.70
2010,01,20,12,08,7.10
2010,01,20,12,09,7.90
2010,01,20,12,10,8.50
2010,01,20,12,11,7.10
2010,01,20,12,12,3.90
2010,01,20,12,13,8.00
2010,01,20,12,14,5.50
2010,01,20,12,15,9.60
2010,01,20,12,16,6.50
2010,01,20,12,17,9.80
2010,01,20,12,18,11.20
2010,01,20,12,19,5.60
2010,01,20,12,20,6.60
2010,01,20,12,21,7.00
2010,01,20,12,22,7.90
2010,01,20,12,23,6.40
2010,01,20,12,24,6.70
2010,01,20,12,25,6.10
2010,01,20,12,26,8.40
2010,01,20,12,27,3.90
2010,01,20,12,28,8.10
2010,01,20,12,29,5.70
2010,01,20,12,30,7.20
2010,01,20,12,31,8.70
2010,01,20,12,32,10.00
2010,01,20,12,33,5.30
2010,01,20,12,34,2.90
2010,01,20,12,35,4.60
2010,01,20,12,36,11.30
2010,01,20,12,37,6.50
2010,01,20,12,38,6.20
2010,01,20,12,39,4.80
2010,01,20,12,40,7.50
2010,01,20,12,41,4.90
2010,01,20,12,42,5.00
2010,01,20,12,43,6.00
2010,01,20,12,44,5.80
2010,01,20,12,45,6.10
2010,01,20,12,46,8.60
2010,01,20,12,47,6.80
2010,01,20,12,48,5.10
2010,01,20,12,49,5.50
2010,01,20,12,50,4.30
2010,01,20,12,51,5.00
2010,01,20,12,52,6.00
2010,01,20,12,53,6.30
2010,01,20,12,54,6.20
2010,01,20,12,55,6.40
2010,01,20,12,56,6.40
2010,01,20,12,57,5.60
2010,01,20,12,58,7.10
2010,01,20,12,59,6.40
2010,01,20,13,00,4.80
2010,01,20,13,01,12.10
2010,01,20,13,02,6.00
2010,01,20,13,03,10.80
2010,01,20,13,04,9.00
2010,01,20,13,05,5.70
2010,01,20,13,06,3.90
2010,01,20,13,07,4.40
2010,01,20,13,08,7.20
2010,01,20,13,09,7.80
2010,01,20,13,10,7.90
2010,01,20,13,11,4.90
2010,01,20,13,12,5.60
2010,01,20,13,13,7.10
2010,01,20,13,14,3.00
2010,01,20,13,15,2.10
2010,01,20,13,16,2.10
2010,01,20,13,17,4.50
2010,01,20,13,18,3.80
2010,01,20,13,19,2.10
2010,01,20,13,20,3.50
2010,01,20,13,21,5.10
2010,01,20,13,22,7.90
2010,01,20,13,23,8.90
2010,01,20,13,24,10.50
2010,01,20,13,25,7.50
2010,01,20,13,26,7.40
2010,01,20,13,27,6.90
2010,01,20,13,28,9.60
2010,01,20,13,29,5.60
2010,01,20,13,30,9.20
2010,01,20,13,31,5.70
2010,01,20,13,32,5.70
2010,01,20,13,33,6.20
2010,01,20,13,34,6.90
2010,01,20,13,35,6.70
2010,01,20,13,36,6.10
2010,01,20,13,37,8.50
2010,01,20,13,38,9.40
2010,01,20,13,39,6.80
2010,01,20,13,40,9.20
2010,01,20,13,41,6.90
2010,01,20,13,42,7.70
2010,01,20,13,43,7.40
2010,01,20,13,44,6.80
2010,01,20,13,45,4.60
2010,01,20,13,46,5.60
2010,01,20,13,47,5.20
2010,01,20,13,48,4.40
2010,01,20,13,49,8.50
2010,01,20,13,50,6.90
2010,01,20,13,51,2.20
2010,01,20,13,52,5.70
2010,01,20,13,53,4.10
2010,01,20,13,54,4.60
2010,01,20,13,55,6.50
2010,01,20,13,56,8.60
2010,01,20,13,57,4.30
2010,01,20,13,58,4.20
2010,01,20,13,59,5.30
2010,01,20,14,00,6.00
2010,01,20,14,01,6.90
2010,01,20,14,02,5.40
2010,01,20,14,03,5.50
2010,01,20,14,04,7.70
2010,01,20,14,05,6.10
2010,01,20,14,06,3.70
2010,01,20,14,07,7.50
2010,01,20,14,08,7.10
2010,01,20,14,09,7.00
2010,01,20,14,10,8.80
2010,01,20,14,11,9.30
2010,01,20,14,12,5.90
2010,01,20,14,13,3.20
2010,01,20,14,14,5.70
2010,01,20,14,15,5.30
2010,01,20,14,16,9.30
2010,01,20,14,17,10.70
2010,01,20,14,18,7.40
2010,01,20,14,19,8.00
2010,01,20,14,20,5.00
2010,01,20,14,21,7.10
2010,01,20,14,22,8.50
2010,01,20,14,23,5.30
2010,01,20,14,24,3.70
2010,01,20,14,25,8.90
2010,01,20,14,26,6.40
2010,01,20,14,27,3.10
2010,01,20,14,28,5.70
2010,01,20,14,29,9.10
2010,01,20,14,30,7.30
2010,01,20,14,31,4.30
2010,01,20,14,32,7.50
2010,01,20,14,33,7.70
2010,01,20,14,34,8.10
2010,01,20,14,35,3.10
2010,01,20,14,36,8.00
2010,01,20,14,37,6.30
2010,01,20,14,38,9.20
2010,01,20,14,39,3.10
2010,01,20,14,40,4.90
2010,01,20,14,41,6.80
2010,01,20,14,42,3.00
2010,01,20,14,43,2.80
2010,01,20,14,44,4.10
2010,01,20,14,45,3.60
2010,01,20,14,46,6.80
2010,01,20,14,47,3.60
2010,01,20,14,48,2.10
2010,01,20,14,49,0.50
2010,01,20,14,50,7.70
2010,01,20,14,51,7.80
2010,01,20,14,52,4.60
2010,01,20,14,53,6.10
2010,01,20,14,54,5.70
2010,01,20,14,55,3.50
2010,01,20,14,56,4.30
2010,01,20,14,57,7.90
2010,01,20,14,58,7.60
2010,01,20,14,59,6.00
2010,01,20,15,00,3.50
2010,01,20,15,01,1.70
2010,01,20,15,02,3.50
2010,01,20,15,03,4.70
2010,01,20,15,04,3.70
2010,01,20,15,05,2.60
2010,01,20,15,06,6.40
2010,01,20,15,07,4.40
2010,01,20,15,08,3.30
2010,01,20,15,09,5.40
2010,01,20,15,10,4.20
2010,01,20,15,11,5.00
2010,01,20,15,12,6.00
2010,01,20,15,13,6.50
2010,01,20,15,14,3.80
2010,01,20,15,15,6.20
2010,01,20,15,16,3.90
2010,01,20,15,17,5.70
2010,01,20,15,18,5.30
2010,01,20,15,19,3.80
2010,01,20,15,20,5.20
2010,01,20,15,21,6.20
2010,01,20,15,22,6.70
2010,01,20,15,23,8.70
2010,01,20,15,24,2.70
2010,01,20,15,25,7.00
2010,01,20,15,26,3.40
2010,01,20,15,27,3.50
2010,01,20,15,28,4.10
2010,01,20,15,29,2.60
2010,01,20,15,30,4.00
2010,01,20,15,31,5.70
2010,01,20,15,32,4.50
2010,01,20,15,33,4.00
2010,01,20,15,34,3.40
2010,01,20,15,35,4.10
2010,01,20,15,36,5.80
2010,01,20,15,37,8.40
2010,01,20,15,38,8.30
2010,01,20,15,39,5.90
2010,01,20,15,40,5.30
2010,01,20,15,41,2.80
2010,01,20,15,42,3.50
2010,01,20,15,43,3.90
2010,01,20,15,44,5.00
2010,01,20,15,45,4.20
2010,01,20,15,46,3.70
2010,01,20,15,47,3.10
2010,01,20,15,48,1.10
2010,01,20,15,49,1.40
2010,01,20,15,50,3.20
2010,01,20,15,51,4.60
2010,01,20,15,52,4.90
2010,01,20,15,53,4.50
2010,01,20,15,54,5.30
2010,01,20,15,55,4.60
2010,01,20,15,56,5.00
2010,01,20,15,57,5.00
2010,01,20,15,58,3.80
2010,01,20,15,59,3.50
2010,01,20,16,00,3.30
2010,01,20,16,01,3.00
2010,01,20,16,02,2.80
2010,01,20,16,03,1.40
2010,01,20,16,04,0.20
2010,01,20,16,05,1.10
2010,01,20,16,06,0.10
2010,01,20,16,07,0.70
2010,01,20,16,08,1.80
2010,01,20,16,09,0.10
2010,01,20,16,10,3.30
2010,01,20,16,11,2.70
2010,01,20,16,12,0.10
2010,01,20,16,13,0.00
2010,01,20,16,14,1.80
2010,01,20,16,15,1.40
2010,01,20,16,16,0.00
2010,01,20,16,17,0.10
2010,01,20,16,18,0.00
2010,01,20,16,19,0.80
2010,01,20,16,20,1.90
2010,01,20,16,21,0.30
2010,01,20,16,22,1.90
2010,01,20,16,23,0.30
2010,01,20,16,24,0.00
2010,01,20,16,25,0.20
2010,01,20,16,26,0.30
2010,01,20,16,27,0.00
2010,01,20,16,28,0.50
2010,01,20,16,29,2.30
2010,01,20,16,30,1.90
2010,01,20,16,31,0.00
2010,01,20,16,32,0.10
2010,01,20,16,33,0.00
2010,01,20,16,34,0.60
2010,01,20,16,35,1.30
2010,01,20,16,36,0.60
2010,01,20,16,37,2.30
2010,01,20,16,38,0.30
2010,01,20,16,39,0.40
2010,01,20,16,40,0.00
2010,01,20,16,41,0.00
2010,01,20,16,42,0.00
2010,01,20,16,43,0.00
2010,01,20,16,44,0.00
2010,01,20,16,45,0.00
2010,01,20,16,46,0.00
2010,01,20,16,47,0.00
2010,01,20,16,48,0.00
2010,01,20,16,49,0.00
2010,01,20,16,50,0.00
2010,01,20,16,51,0.00
2010,01,20,16,52,0.00
2010,01,20,16,53,0.00
2010,01,20,16,54,0.00
2010,01,20,16,55,0.00
2010,01,20,16,56,0.00
2010,01,20,16,57,0.00
2010,01,20,16,58,0.00
2010,01,20,16,59,0.00
2010,01,20,17,00,0.00
2010,01,20,17,01,0.00
2010,01,20,17,02,1.00
2010,01,20,17,03,2.80
2010,01,20,17,04,1.80
2010,01,20,17,05,1.60
2010,01,20,17,06,2.20
2010,01,20,17,07,1.80
2010,01,20,17,08,0.10
2010,01,20,17,09,1.00
2010,01,20,17,10,1.10
2010,01,20,17,11,0.20
2010,01,20,17,12,0.00
2010,01,20,17,13,0.00
2010,01,20,17,14,0.00
2010,01,20,17,15,0.10
2010,01,20,17,16,0.00
2010,01,20,17,17,0.00
2010,01,20,17,18,0.00
2010,01,20,17,19,0.00
2010,01,20,17,20,0.50
2010,01,20,17,21,2.70
2010,01,20,17,22,2.20
2010,01,20,17,23,1.80
2010,01,20,17,24,2.20
2010,01,20,17,25,2.10
2010,01,20,17,26,1.90
2010,01,20,17,27,1.00
2010,01,20,17,28,0.00
2010,01,20,17,29,0.10
2010,01,20,17,30,0.30
2010,01,20,17,31,0.00
2010,01,20,17,32,0.30
2010,01,20,17,33,0.00
2010,01,20,17,34,0.00
2010,01,20,17,35,0.00
2010,01,20,17,36,0.00
2010,01,20,17,37,0.10
2010,01,20,17,38,1.50
2010,01,20,17,39,0.60
2010,01,20,17,40,0.00
2010,01,20,17,41,0.00
2010,01,20,17,42,0.00
2010,01,20,17,43,0.00
2010,01,20,17,44,0.20
2010,01,20,17,45,0.00
2010,01,20,17,46,0.00
2010,01,20,17,47,0.00
2010,01,20,17,48,0.00
2010,01,20,17,49,0.00
2010,01,20,17,50,0.00
2010,01,20,17,51,0.20
2010,01,20,17,52,2.10
2010,01,20,17,53,0.40
2010,01,20,17,54,0.20
2010,01,20,17,55,0.20
2010,01,20,17,56,0.00
2010,01,20,17,57,1.60
2010,01,20,17,58,2.90
2010,01,20,17,59,2.30
2010,01,20,18,00,1.30
2010,01,20,18,01,0.00
2010,01,20,18,02,0.00
2010,01,20,18,03,0.00